Nampa, ID

3:43 PM MST on December 02, 2016 (GMT -0700)
Nampa

Weather History for KMAN - November, 2012

Change the Weather History Date:

Monday, November 5, 2012

  Actual Average (KBOI) Record (KBOI)
Temperature  
Mean Temperature 48 °F 45 °F  
Max Temperature 64 °F 54 °F 73 °F (1975)
Min Temperature 33 °F 35 °F 13 °F (1935)
Degree Days  
Heating Degree Days 16 20  
Month to date heating degree days 98  
Since 1 July heating degree days 604  
Cooling Degree Days 0 0  
Month to date cooling degree days 0  
Year to date cooling degree days 942  
Moisture  
Dew Point 40 °F    
Average Humidity 81    
Maximum Humidity 100    
Minimum Humidity 42    
Precipitation  
Precipitation 0.00 in 0.04 in 0.80 in (1913)
Month to date precipitation 0.19  
Year to date precipitation 9.02  
Snow  
Snow 0.00 in 0.00 in 0.40 in (1947)
Month to date snowfall 0.1  
Since 1 July snowfall 0.2  
Snow Depth -    
Sea Level Pressure  
Sea Level Pressure 30.37 in    
Wind  
Wind Speed 2 mph (SSE)    
Max Wind Speed 5 mph    
Max Gust Speed -    
Visibility 9 miles    
Events      
T = Trace of Precipitation, MM = Missing Value Source: NWS Daily Summary

Daily Weather History Graph

Daily Weather History Graph

Search for Another Location

Airport or City:

Trip Planner

Search our weather history database for the weather conditions in past years. The results will help you decide how hot, cold, wet, or windy it might be!

Date:

Astronomy

Nov. 05, 2012 Rise Set
Actual Time 7:27 AM MST 5:31 PM MST
Civil Twilight 6:57 AM MST 6:01 PM MST
Nautical Twilight 6:23 AM MST 6:35 PM MST
Astronomical Twilight 5:49 AM MST 7:08 PM MST
Moon 11:13 PM MST (11/5) 12:49 PM MST (11/5)
Length of Visible Light 11h 03m
Length of Day
10h 03m
Waning Gibbous, 62% of the Moon is Illuminated
Nov 5
Waning Gibbous
Nov 6
Last Quarter
Nov 13
New
Nov 20
First Quarter
Nov 28
Full

Hourly Weather History & Observations

Time (MST) Temp. Windchill Dew Point Humidity Pressure Visibility Wind Dir Wind Speed Gust Speed Precip Events Conditions
12:15 AM 41.0 °F 38.0 °F 41.0 °F 100% 30.42 in 10.0 mi ESE 4.6 mph - N/A   Clear
12:35 AM 41.0 °F - 39.2 °F 93% 30.42 in 10.0 mi Calm Calm - N/A   Clear
12:55 AM 41.0 °F 39.0 °F 41.0 °F 100% 30.43 in 10.0 mi ESE 3.5 mph - N/A   Clear
1:15 AM 39.2 °F - 39.2 °F 100% 30.43 in 10.0 mi Calm Calm - N/A   Clear
1:35 AM 39.2 °F 37.0 °F 39.2 °F 100% 30.42 in 10.0 mi ESE 3.5 mph - N/A   Clear
1:55 AM 39.2 °F - 39.2 °F 100% 30.42 in 10.0 mi Calm Calm - N/A   Clear
2:15 AM 37.4 °F 34.9 °F 37.4 °F 100% 30.42 in 10.0 mi SE 3.5 mph - N/A   Clear
2:35 AM 37.4 °F - 37.4 °F 100% 30.41 in 10.0 mi Calm Calm - N/A   Clear
2:55 AM 37.4 °F 34.9 °F 37.4 °F 100% 30.41 in 10.0 mi ESE 3.5 mph - N/A   Clear
3:15 AM 37.4 °F - 37.4 °F 100% 30.40 in 10.0 mi Calm Calm - N/A   Clear
3:35 AM 37.4 °F 34.9 °F 37.4 °F 100% 30.39 in 10.0 mi ESE 3.5 mph - N/A   Clear
3:55 AM 39.2 °F 37.0 °F 39.2 °F 100% 30.39 in 10.0 mi ENE 3.5 mph - N/A   Clear
4:35 AM 39.2 °F - 39.2 °F 100% 30.40 in 10.0 mi Calm Calm - N/A   Clear
4:55 AM 39.2 °F - 39.2 °F 100% 30.40 in 9.0 mi Calm Calm - N/A   Clear
5:15 AM 39.2 °F - 39.2 °F 100% 30.41 in 8.0 mi Calm Calm - N/A   Clear
5:35 AM 37.4 °F - 37.4 °F 100% 30.41 in 7.0 mi Calm Calm - N/A   Clear
5:55 AM 35.6 °F - 35.6 °F 100% 30.42 in 8.0 mi Calm Calm - N/A   Clear
6:15 AM 35.6 °F - 35.6 °F 100% 30.41 in 7.0 mi Calm Calm - N/A   Clear
6:35 AM 35.6 °F 32.8 °F 35.6 °F 100% 30.41 in 8.0 mi SE 3.5 mph - N/A   Clear
6:55 AM 33.8 °F 29.6 °F 33.8 °F 100% 30.40 in 8.0 mi SE 4.6 mph - N/A   Clear
7:15 AM 35.6 °F 32.8 °F 35.6 °F 100% 30.40 in 9.0 mi ESE 3.5 mph - N/A   Clear
7:35 AM 35.6 °F - 35.6 °F 100% 30.41 in 7.0 mi Calm Calm - N/A   Clear
7:55 AM 37.4 °F - 37.4 °F 100% 30.42 in 8.0 mi Calm Calm - N/A   Clear
8:15 AM 35.6 °F 32.8 °F 35.6 °F 100% 30.41 in 7.0 mi SE 3.5 mph - N/A   Clear
8:35 AM 37.4 °F - 37.4 °F 100% 30.42 in 8.0 mi Calm Calm - N/A   Clear
8:55 AM 41.0 °F - 41.0 °F 100% 30.42 in 8.0 mi Calm Calm - N/A   Clear
9:15 AM 44.6 °F - 44.6 °F 100% 30.42 in 8.0 mi Calm Calm - N/A   Clear
9:35 AM 46.4 °F - 44.6 °F 93% 30.43 in 9.0 mi Calm Calm - N/A   Clear
9:55 AM 48.2 °F - 44.6 °F 87% 30.43 in 10.0 mi Calm Calm - N/A   Clear
10:15 AM 50.0 °F - 44.6 °F 82% 30.42 in 10.0 mi SW 3.5 mph - N/A   Clear
10:35 AM 50.0 °F - 42.8 °F 76% 30.42 in 10.0 mi SW 3.5 mph - N/A   Clear
10:55 AM 51.8 °F - 42.8 °F 71% 30.43 in 10.0 mi SW 3.5 mph - N/A   Clear
11:15 AM 53.6 °F - 41.0 °F 62% 30.42 in 10.0 mi West 4.6 mph - N/A   Clear
11:35 AM 55.4 °F - 41.0 °F 58% 30.41 in 10.0 mi West 3.5 mph - N/A   Clear
11:55 AM 55.4 °F - 42.8 °F 63% 30.41 in 10.0 mi Calm Calm - N/A   Clear
12:15 PM 55.4 °F - 42.8 °F 63% 30.40 in 10.0 mi Calm Calm - N/A   Clear
12:35 PM 57.2 °F - 42.8 °F 59% 30.38 in 10.0 mi SSW 3.5 mph - N/A   Clear
12:55 PM 57.2 °F - 42.8 °F 59% 30.38 in 10.0 mi SSW 3.5 mph - N/A   Clear
1:15 PM 57.2 °F - 42.8 °F 59% 30.37 in 10.0 mi Calm Calm - N/A   Clear
1:35 PM 59.0 °F - 41.0 °F 51% 30.36 in 9.0 mi Calm Calm - N/A   Clear
1:55 PM 60.8 °F - 41.0 °F 48% 30.35 in 10.0 mi Calm Calm - N/A   Clear
2:15 PM 62.6 °F - 41.0 °F 45% 30.34 in 10.0 mi Calm Calm - N/A   Clear
2:55 PM 64.4 °F - 41.0 °F 42% 30.33 in 10.0 mi Calm Calm - N/A   Scattered Clouds
3:15 PM 64.4 °F - 41.0 °F 42% 30.33 in 10.0 mi NE 3.5 mph - N/A   Partly Cloudy
3:35 PM 64.4 °F - 41.0 °F 42% 30.33 in 10.0 mi North 3.5 mph - N/A   Clear
3:55 PM 64.4 °F - 41.0 °F 42% 30.33 in 10.0 mi North 3.5 mph - N/A   Clear
4:15 PM 64.4 °F - 41.0 °F 42% 30.33 in 10.0 mi NW 3.5 mph - N/A   Clear
4:35 PM 62.6 °F - 41.0 °F 45% 30.32 in 10.0 mi NNW 3.5 mph - N/A   Clear
4:55 PM 62.6 °F - 41.0 °F 45% 30.32 in 10.0 mi WNW 3.5 mph - N/A   Clear
5:15 PM 62.6 °F - 41.0 °F 45% 30.31 in 10.0 mi WNW 4.6 mph - N/A   Clear
5:35 PM 59.0 °F - 41.0 °F 51% 30.31 in 10.0 mi WNW 3.5 mph - N/A   Clear
5:55 PM 57.2 °F - 41.0 °F 55% 30.31 in 10.0 mi Calm Calm - N/A   Clear
6:15 PM 55.4 °F - 42.8 °F 63% 30.31 in 10.0 mi Calm Calm - N/A   Clear
6:35 PM 53.6 °F - 41.0 °F 62% 30.31 in 10.0 mi Calm Calm - N/A   Clear
6:55 PM 51.8 °F - 42.8 °F 71% 30.31 in 10.0 mi Calm Calm - N/A   Clear
7:15 PM 50.0 °F - 42.8 °F 76% 30.31 in 10.0 mi Calm Calm - N/A   Clear
7:35 PM 48.2 °F - 44.6 °F 87% 30.31 in 10.0 mi Calm Calm - N/A   Clear
7:55 PM 46.4 °F - 42.8 °F 87% 30.30 in 4.0 mi Calm Calm - N/A   Clear
8:15 PM 48.2 °F - 44.6 °F 87% 30.30 in 9.0 mi Calm Calm - N/A   Clear
8:35 PM 46.4 °F - 44.6 °F 93% 30.30 in 10.0 mi Calm Calm - N/A   Clear
8:55 PM 44.6 °F - 41.0 °F 87% 30.31 in 7.0 mi Calm Calm - N/A   Clear
9:15 PM 42.8 °F - 41.0 °F 93% 30.31 in 8.0 mi Calm Calm - N/A   Clear
9:35 PM 42.8 °F - 41.0 °F 93% 30.31 in 8.0 mi Calm Calm - N/A   Clear
9:55 PM 44.6 °F - 41.0 °F 87% 30.31 in 8.0 mi Calm Calm - N/A   Clear
10:15 PM 41.0 °F 39.0 °F 41.0 °F 100% 30.31 in 8.0 mi ESE 3.5 mph - N/A   Clear
10:35 PM 42.8 °F - 41.0 °F 93% 30.30 in 7.0 mi Calm Calm - N/A   Clear
10:55 PM 39.2 °F 35.9 °F 39.2 °F 100% 30.30 in 8.0 mi ESE 4.6 mph - N/A   Clear
11:15 PM 41.0 °F 39.0 °F 41.0 °F 100% 30.30 in 8.0 mi SE 3.5 mph - N/A   Clear
11:35 PM 39.2 °F - 39.2 °F 100% 30.30 in 10.0 mi Calm Calm - N/A   Clear
11:55 PM 39.2 °F - 39.2 °F 100% 30.30 in 10.0 mi Calm Calm - N/A   Clear